Temp
80 93 96 90 74 73 65 66 75 70 72 77 79 77 75 76 71 63 81 83 85 82 82 79 75 76 76 76 76 76 75 76 76 76 76 77 77 77 77 77 76 76 77 77 77 76 75 75 74
95 93 92 85 70 64 65 73 69 74 76 79 77 77 76 70 77 74 76 83 85 84 83 80 73 75 75 75 75 75 76 76 76 76 76 76 77 76 76 76 76 76 76 76 76 75 75 74 74
90 92 83 76 70 66 65 72 74 74 77 77 75 79 78 72 77 78 82 84 85 84 84 78 73 74 75 75 75 75 75 76 76 76 76 76 77 76 76 75 76 76 76 76 76 75 74 74 74
89 89 84 70 66 69 71 75 77 74 75 77 78 73 78 80 79 83 83 85 84 83 79 73 73 74 74 75 75 75 75 76 76 76 76 76 76 76 75 75 75 75 75 76 75 75 74 73 73
88 83 70 67 67 70 74 78 78 75 77 77 78 73 73 77 82 83 83 84 83 82 78 79 72 73 74 74 75 75 75 75 76 75 75 75 75 75 75 75 75 75 75 74 74 74 73 73 72
79 80 67 63 67 70 74 77 78 77 78 77 76 76 74 80 80 82 84 84 85 81 81 78 69 71 72 73 74 74 74 74 74 74 74 74 74 74 75 74 74 74 74 73 74 73 72 72 71
75 72 68 70 68 69 72 78 76 76 76 76 80 74 75 77 81 83 84 85 85 82 77 80 78 73 69 70 71 72 73 73 73 73 73 72 72 72 72 72 73 73 73 73 72 72 72 71 70
78 75 66 70 67 66 74 76 79 78 76 80 81 74 72 79 81 83 84 84 84 81 76 78 80 79 78 76 67 68 70 70 70 69 68 68 68 69 70 69 72 73 73 71 70 70 70 70 69
78 69 63 66 69 70 75 74 77 79 77 78 78 79 82 80 81 80 80 80 80 78 77 78 79 81 81 79 72 66 66 67 66 67 65 66 76 76 73 67 70 72 71 70 70 69 68 67 66
70 67 68 76 77 73 74 77 75 75 75 75 75 77 80 79 78 77 76 76 77 77 76 77 78 80 81 81 77 78 76 77 78 76 75 78 77 76 75 68 66 68 68 70 68 67 65 64 73
74 69 73 73 75 79 74 75 79 76 72 78 76 75 76 77 77 77 78 79 78 80 79 77 76 78 80 80 79 79 78 78 78 77 76 77 76 74 75 73 73 73 67 73 71 68 71 73 74
69 72 74 71 70 74 72 77 74 77 76 79 81 81 77 76 77 78 78 80 80 80 80 78 76 75 80 79 79 78 78 78 77 76 76 75 74 74 75 75 75 73 73 72 72 72 72 72 72
71 71 71 71 70 74 74 73 74 75 78 78 77 78 78 77 79 80 81 82 81 79 80 79 78 76 77 77 78 77 76 77 77 76 75 76 75 73 74 74 74 74 74 73 72 72 70 70 71
72 71 70 71 70 69 70 70 71 74 75 75 74 76 78 78 79 80 80 80 80 80 80 81 79 77 75 73 74 75 76 77 77 77 76 75 75 74 74 73 73 73 74 74 73 71 70 70 71
71 62 67 69 69 67 70 66 68 73 73 73 73 77 78 79 80 79 80 80 80 80 81 80 80 76 74 72 72 73 73 72 71 74 76 75 74 75 74 74 73 73 73 72 71 71 71 70 71
66 68 60 66 67 66 66 64 72 72 73 74 76 78 76 76 78 80 81 80 82 81 80 81 79 74 72 72 72 72 72 71 71 71 72 74 74 74 73 73 73 73 70 68 67 69 69 68 69
63 59 60 58 66 66 66 66 68 71 72 74 76 76 76 77 77 80 81 81 81 81 81 79 79 72 71 71 72 71 71 71 71 70 72 71 72 73 73 72 73 71 66 63 64 65 64 63 64
57 59 60 61 62 62 63 65 67 69 69 73 75 76 75 75 77 79 79 79 80 80 81 80 79 75 70 70 70 70 69 70 70 71 71 70 69 69 69 71 71 69 65 64 61 60 61 62 61
67 61 59 64 60 61 62 65 70 71 69 71 73 74 74 73 74 73 73 74 75 77 78 78 78 78 71 67 65 65 65 67 67 68 69 70 68 66 65 65 66 68 64 64 62 62 60 60 60
63 61 60 56 58 59 62 61 69 67 68 67 68 71 70 70 70 68 69 69 71 72 74 76 77 78 76 68 68 68 67 67 68 68 68 68 68 66 64 64 63 63 61 61 62 60 57 55 57
60 59 57 59 54 58 58 60 62 62 63 64 64 65 66 67 68 67 67 68 68 68 71 73 75 76 77 75 69 66 64 64 65 66 67 67 67 66 64 63 63 63 62 60 61 60 57 54 56
54 61 60 54 55 53 56 54 60 60 60 61 62 65 65 65 66 66 65 65 64 65 67 69 72 73 75 76 74 66 64 64 66 68 67 66 67 66 65 64 63 62 62 60 60 61 59 56 54
57 61 59 57 56 54 53 53 60 58 56 57 60 60 62 63 64 62 62 62 63 64 65 67 68 69 70 72 73 71 67 68 68 66 66 65 66 66 65 64 63 62 62 61 60 59 58 57 56
58 56 56 56 54 45 55 54 59 55 59 58 58 60 60 62 61 61 62 63 62 63 64 65 65 66 68 69 70 70 68 65 61 61 60 61 62 64 63 62 62 62 62 61 61 60 59 57 56
59 55 44 42 41 42 46 46 59 59 62 61 58 59 60 62 63 62 61 61 61 61 62 63 63 63 65 65 65 65 64 64 64 64 64 63 64 65 66 65 64 63 62 60 59 58 58 57 56
54 57 46 35 37 44 40 42 54 59 62 63 62 61 60 60 60 60 60 59 59 59 60 61 61 60 62 62 62 62 64 64 63 62 61 61 61 61 61 61 62 63 63 63 60 58 57 57 56
54 49 55 41 32 40 47 53 55 54 56 58 58 58 58 59 59 58 59 59 58 58 58 60 59 59 59 60 60 59 60 60 59 59 60 59 59 58 58 59 59 60 61 60 60 59 57 56 55
55 59 45 49 33 34 47 49 53 47 51 55 55 57 58 58 58 58 58 58 58 58 58 59 59 57 58 58 58 57 57 58 58 57 55 55 56 56 56 56 56 57 57 58 58 56 57 56 56
49 49 51 54 48 40 39 47 59 55 57 56 57 59 57 57 57 57 57 57 57 58 58 57 57 56 55 56 56 55 55 56 56 55 54 53 54 53 53 52 52 53 53 54 54 54 54 53 53
55 55 54 46 38 44 40 49 54 63 62 60 59 58 58 57 57 57 56 56 56 55 55 54 54 52 53 54 54 53 54 54 53 52 52 51 50 51 51 50 50 50 51 51 50 50 51 50 50
MSLP
1012.20 1011.15 1010.46 1010.02 1009.49 1008.81 1009.07 1010.11 1010.44 1010.88 1011.14 1011.92 1011.95 1012.08 1012.31 1012.91 1013.51 1014.94 1016.37 1016.47 1016.71 1017.60 1018.47 1019.18 1019.58 1019.77 1019.89 1019.93 1019.92 1020.09 1020.31 1020.37 1020.52 1020.67 1020.86 1020.93 1020.91 1020.97 1021.01 1021.06 1021.19 1021.38 1021.43 1021.43 1021.48 1021.69 1021.66 1021.70 1021.72
1011.30 1010.78 1010.25 1009.46 1008.86 1008.39 1009.13 1010.06 1010.60 1011.00 1011.79 1012.16 1012.54 1012.58 1012.44 1013.49 1014.49 1015.86 1016.47 1016.87 1017.18 1017.75 1018.57 1019.28 1019.96 1020.07 1020.17 1020.26 1020.32 1020.38 1020.58 1020.64 1020.80 1021.06 1021.28 1021.32 1021.30 1021.35 1021.36 1021.48 1021.60 1021.76 1021.83 1021.94 1022.05 1022.18 1022.14 1022.20 1022.28
1011.71 1010.95 1009.95 1009.28 1008.85 1008.20 1009.11 1010.26 1010.58 1011.79 1012.28 1012.27 1012.46 1012.96 1013.02 1014.01 1014.96 1015.64 1016.37 1016.98 1017.47 1018.03 1018.51 1019.73 1020.20 1020.40 1020.52 1020.63 1020.71 1020.66 1020.87 1020.98 1021.23 1021.47 1021.64 1021.67 1021.66 1021.73 1021.79 1021.91 1021.92 1022.12 1022.35 1022.41 1022.58 1022.57 1022.69 1022.74 1022.86
1011.17 1010.49 1010.42 1009.57 1009.01 1009.77 1009.81 1010.27 1010.92 1011.80 1012.43 1012.65 1012.56 1012.85 1014.11 1015.17 1015.15 1015.57 1016.70 1017.07 1017.65 1018.14 1018.96 1020.13 1020.46 1020.66 1020.81 1020.93 1020.98 1021.00 1021.16 1021.35 1021.48 1021.81 1021.99 1022.06 1022.12 1022.17 1022.25 1022.39 1022.47 1022.56 1022.69 1022.90 1022.98 1023.01 1023.21 1023.28 1023.46
1011.23 1010.46 1009.66 1009.57 1009.72 1010.35 1010.67 1010.64 1011.09 1011.51 1011.80 1012.30 1012.74 1013.09 1014.08 1015.53 1015.92 1016.20 1016.86 1017.11 1017.68 1018.49 1019.47 1020.08 1020.63 1020.82 1020.97 1021.18 1021.32 1021.39 1021.50 1021.68 1021.87 1022.11 1022.25 1022.35 1022.48 1022.50 1022.62 1022.75 1022.84 1022.87 1023.06 1023.26 1023.32 1023.51 1023.70 1023.82 1023.93
1010.75 1010.37 1009.53 1009.35 1009.87 1010.66 1011.01 1011.20 1011.22 1011.48 1011.93 1012.48 1012.70 1013.11 1014.46 1015.78 1016.11 1016.47 1017.01 1017.34 1017.68 1018.53 1019.29 1020.20 1020.88 1021.16 1021.32 1021.49 1021.69 1021.80 1021.92 1022.13 1022.24 1022.46 1022.59 1022.70 1022.82 1022.91 1023.03 1023.15 1023.20 1023.20 1023.40 1023.58 1023.68 1023.82 1024.05 1024.13 1024.31
1010.87 1010.37 1009.33 1009.11 1009.89 1010.62 1011.02 1011.48 1011.31 1011.62 1012.05 1012.45 1012.78 1012.88 1014.79 1015.78 1016.19 1016.68 1017.03 1017.44 1017.80 1018.89 1019.63 1020.05 1020.67 1021.28 1021.63 1021.84 1022.03 1022.15 1022.31 1022.52 1022.65 1022.79 1022.91 1023.08 1023.20 1023.32 1023.40 1023.52 1023.54 1023.55 1023.70 1023.88 1024.09 1024.24 1024.29 1024.46 1024.61
1011.35 1010.55 1010.12 1009.77 1009.94 1010.52 1011.27 1011.60 1011.59 1011.73 1012.22 1013.18 1013.36 1012.99 1014.22 1015.44 1016.39 1016.88 1017.20 1017.59 1018.02 1018.94 1019.86 1020.05 1020.45 1020.99 1021.38 1021.90 1022.37 1022.56 1022.72 1022.86 1023.01 1023.23 1023.37 1023.57 1023.67 1023.80 1023.88 1023.85 1023.87 1023.85 1024.00 1024.25 1024.55 1024.66 1024.69 1024.80 1024.89
1012.04 1010.59 1010.09 1009.88 1009.82 1010.63 1011.49 1011.59 1012.24 1012.59 1012.68 1013.10 1013.75 1013.93 1014.16 1015.72 1016.44 1016.84 1017.36 1017.82 1018.38 1019.20 1019.84 1020.13 1020.32 1020.59 1020.95 1021.50 1022.38 1022.79 1023.03 1023.24 1023.43 1023.62 1023.76 1023.83 1023.62 1023.80 1024.03 1024.26 1024.33 1024.32 1024.46 1024.71 1024.97 1025.14 1025.24 1025.25 1025.41
1011.80 1010.48 1009.93 1009.98 1010.17 1010.65 1011.38 1011.32 1012.08 1012.36 1012.70 1013.12 1013.98 1014.94 1015.12 1015.92 1016.47 1016.59 1017.00 1017.44 1018.10 1018.86 1019.58 1020.03 1020.49 1020.46 1020.80 1021.17 1022.12 1022.21 1022.75 1022.85 1022.90 1023.21 1023.62 1023.39 1023.59 1023.83 1023.89 1024.56 1024.84 1024.90 1024.95 1025.11 1025.32 1025.54 1025.67 1025.48 1025.04
1011.10 1010.44 1010.49 1011.11 1011.28 1010.76 1011.48 1011.63 1011.91 1011.85 1012.30 1012.49 1013.29 1014.58 1015.32 1015.88 1016.41 1016.55 1016.80 1017.19 1017.79 1018.31 1019.06 1019.92 1020.35 1020.51 1020.61 1021.03 1021.55 1021.82 1022.27 1022.46 1022.79 1023.12 1023.43 1023.59 1023.73 1024.12 1024.11 1024.45 1024.67 1024.82 1025.12 1025.07 1025.38 1025.69 1025.28 1024.96 1024.81
1011.07 1011.06 1011.11 1011.72 1012.06 1011.85 1011.92 1012.04 1012.06 1012.04 1012.62 1013.14 1013.48 1014.08 1015.03 1015.52 1015.91 1016.29 1016.70 1017.03 1017.63 1018.12 1018.70 1019.59 1020.39 1020.74 1020.55 1020.98 1021.27 1021.73 1021.93 1022.32 1022.66 1022.97 1023.35 1023.60 1023.74 1023.95 1023.95 1024.07 1024.26 1024.52 1024.69 1024.81 1024.90 1024.90 1024.99 1025.11 1025.07
1010.92 1011.32 1011.99 1012.27 1012.55 1012.45 1012.56 1012.39 1012.17 1012.44 1013.05 1013.77 1014.11 1014.35 1014.79 1015.37 1015.71 1016.00 1016.38 1016.90 1017.41 1017.96 1018.51 1019.22 1019.90 1020.57 1020.71 1021.03 1021.36 1021.65 1022.01 1022.29 1022.54 1022.97 1023.38 1023.52 1023.63 1023.90 1024.00 1024.09 1024.22 1024.36 1024.50 1024.62 1024.78 1024.85 1025.02 1025.06 1025.01
1011.31 1011.55 1012.30 1012.70 1012.90 1013.24 1012.93 1013.09 1013.03 1013.01 1013.47 1013.83 1014.03 1014.31 1014.63 1015.06 1015.45 1015.76 1016.13 1016.54 1017.06 1017.65 1018.12 1018.74 1019.46 1020.17 1020.87 1021.32 1021.53 1021.70 1021.91 1022.03 1022.36 1022.67 1023.05 1023.48 1023.52 1023.75 1023.87 1024.08 1024.22 1024.36 1024.48 1024.56 1024.70 1024.80 1024.87 1024.88 1024.84
1011.56 1012.17 1012.77 1012.93 1013.16 1013.66 1013.40 1013.16 1012.88 1013.45 1013.71 1013.69 1013.95 1013.87 1014.29 1014.67 1015.09 1015.49 1015.97 1016.40 1016.89 1017.44 1017.96 1018.44 1019.06 1020.08 1020.77 1021.18 1021.58 1021.73 1022.05 1022.48 1022.64 1022.67 1022.84 1023.21 1023.46 1023.56 1023.79 1023.97 1024.14 1024.20 1024.35 1024.53 1024.72 1024.79 1024.86 1024.76 1024.71
1011.71 1011.93 1012.43 1012.95 1013.34 1013.88 1013.75 1012.47 1012.64 1013.56 1013.62 1013.32 1013.39 1013.61 1014.31 1014.80 1015.05 1015.23 1015.65 1016.24 1016.59 1017.19 1017.66 1018.13 1018.82 1019.77 1020.55 1020.95 1021.42 1021.79 1022.06 1022.36 1022.62 1022.87 1022.96 1023.07 1023.37 1023.43 1023.56 1023.67 1023.81 1024.03 1024.35 1024.70 1024.86 1024.57 1024.66 1024.69 1024.61
1011.52 1011.08 1011.93 1013.08 1013.58 1013.41 1013.59 1012.63 1013.40 1013.63 1013.38 1013.33 1013.32 1013.48 1014.06 1014.57 1015.05 1015.25 1015.56 1015.93 1016.30 1016.84 1017.34 1017.97 1018.62 1019.72 1020.42 1020.80 1021.17 1021.53 1021.87 1022.17 1022.40 1022.68 1022.90 1023.14 1023.28 1023.45 1023.48 1023.46 1023.51 1024.00 1024.71 1024.94 1024.81 1024.64 1024.85 1024.89 1024.78
1010.22 1010.92 1011.85 1012.32 1013.52 1013.55 1013.42 1013.07 1013.43 1013.66 1013.71 1013.31 1013.43 1013.66 1014.08 1014.57 1014.93 1015.37 1015.82 1016.19 1016.40 1016.71 1017.19 1017.68 1018.36 1019.19 1020.15 1020.63 1021.00 1021.34 1021.73 1022.06 1022.32 1022.39 1022.65 1022.99 1023.26 1023.48 1023.62 1023.57 1023.53 1024.01 1024.59 1024.57 1024.89 1024.97 1025.10 1025.02 1024.91
1009.81 1010.89 1011.78 1012.28 1013.67 1013.62 1013.21 1012.98 1012.76 1013.39 1013.82 1013.75 1013.78 1014.01 1014.30 1014.78 1015.45 1016.11 1016.39 1016.75 1016.84 1016.95 1017.07 1017.49 1017.95 1018.51 1019.67 1020.38 1020.86 1021.23 1021.40 1021.82 1022.08 1022.15 1022.26 1022.49 1022.88 1023.19 1023.52 1023.69 1023.74 1023.56 1024.01 1024.21 1024.36 1024.60 1024.87 1024.85 1024.98
1010.47 1010.92 1011.92 1013.49 1014.16 1013.95 1013.45 1012.88 1012.85 1013.65 1013.88 1014.47 1014.67 1014.74 1015.10 1015.47 1015.94 1016.56 1016.76 1017.03 1017.19 1017.19 1017.22 1017.43 1017.73 1018.23 1018.87 1019.86 1020.44 1020.71 1020.97 1021.22 1021.48 1021.88 1022.08 1022.21 1022.44 1022.76 1023.08 1023.29 1023.43 1023.53 1023.78 1023.92 1023.96 1024.07 1024.40 1024.54 1024.54
1011.17 1011.21 1012.03 1012.75 1014.27 1014.27 1013.76 1012.65 1012.85 1014.10 1014.67 1015.08 1015.38 1015.78 1016.12 1016.10 1016.33 1016.88 1017.24 1017.38 1017.48 1017.56 1017.43 1017.49 1017.65 1018.04 1018.50 1019.15 1020.05 1020.61 1020.98 1021.12 1021.15 1021.40 1021.77 1021.90 1022.08 1022.30 1022.54 1022.73 1022.91 1023.10 1023.30 1023.45 1023.53 1023.70 1023.91 1023.98 1023.94
1011.60 1012.07 1012.41 1013.23 1013.69 1013.58 1013.94 1012.18 1012.29 1013.41 1014.51 1015.04 1015.51 1015.89 1016.45 1016.77 1017.09 1017.44 1017.74 1018.06 1018.28 1018.18 1018.14 1018.00 1017.89 1018.19 1018.45 1018.85 1019.24 1020.16 1020.62 1020.72 1020.81 1020.99 1021.09 1021.27 1021.66 1021.77 1022.02 1022.31 1022.49 1022.54 1022.70 1022.91 1022.91 1022.89 1023.18 1023.56 1023.61
1012.30 1012.79 1012.94 1013.50 1013.73 1013.81 1013.89 1013.57 1012.17 1013.27 1014.30 1015.12 1015.54 1016.37 1017.17 1017.42 1017.63 1018.00 1018.38 1018.72 1019.05 1018.91 1018.63 1018.57 1018.66 1018.76 1019.02 1019.08 1019.40 1019.86 1020.47 1020.74 1020.83 1020.97 1021.09 1021.04 1021.06 1021.27 1021.52 1021.71 1021.93 1022.05 1022.11 1022.11 1022.27 1022.36 1022.49 1022.59 1022.81
1013.24 1013.40 1013.91 1014.27 1014.45 1014.19 1013.45 1013.51 1011.73 1012.69 1013.24 1014.90 1015.82 1016.57 1017.53 1018.02 1018.37 1018.61 1018.90 1019.04 1019.32 1019.49 1019.43 1019.35 1019.33 1019.44 1019.53 1019.65 1019.83 1019.99 1020.26 1020.95 1021.42 1021.68 1021.71 1021.63 1021.57 1021.52 1021.61 1021.66 1021.65 1021.60 1021.58 1021.57 1021.60 1021.58 1021.79 1021.88 1021.88
1013.00 1012.80 1014.06 1014.56 1014.66 1014.06 1014.72 1014.31 1012.10 1012.91 1013.57 1014.68 1015.57 1016.72 1017.89 1018.20 1018.68 1018.95 1019.31 1019.65 1019.87 1019.95 1020.12 1020.16 1020.07 1020.17 1020.38 1020.65 1020.89 1021.08 1021.24 1021.46 1021.52 1021.73 1021.79 1021.84 1021.71 1021.76 1021.62 1021.59 1021.62 1021.58 1021.59 1021.62 1021.59 1021.53 1021.48 1021.49 1021.54
1012.78 1012.33 1012.83 1013.65 1014.54 1014.41 1015.28 1014.02 1012.70 1013.69 1014.12 1014.88 1016.04 1016.88 1018.00 1018.71 1019.22 1019.51 1020.05 1020.29 1020.59 1020.73 1020.78 1021.01 1021.06 1021.20 1021.35 1021.42 1021.64 1021.90 1021.99 1022.07 1022.29 1022.50 1022.57 1022.60 1022.58 1022.55 1022.44 1022.22 1022.03 1021.81 1021.57 1021.42 1021.37 1021.31 1021.22 1021.16 1021.03
1013.24 1012.88 1013.22 1013.98 1015.72 1014.80 1013.73 1013.34 1013.93 1014.53 1014.79 1015.36 1016.35 1017.32 1017.98 1018.86 1019.59 1019.98 1020.46 1020.82 1021.12 1021.32 1021.38 1021.61 1021.80 1022.14 1022.30 1022.33 1022.48 1022.63 1022.84 1022.98 1023.17 1023.14 1023.13 1023.27 1023.11 1023.01 1022.85 1022.64 1022.34 1022.02 1021.75 1021.61 1021.29 1021.05 1020.90 1020.88 1020.75
1012.99 1012.59 1013.32 1013.35 1014.13 1013.68 1012.58 1012.58 1012.15 1013.73 1014.23 1015.23 1016.11 1016.97 1018.03 1018.99 1019.71 1020.18 1020.75 1021.39 1021.76 1021.88 1022.03 1022.20 1022.35 1022.75 1023.04 1023.11 1023.21 1023.36 1023.52 1023.65 1023.77 1023.79 1023.83 1023.81 1023.74 1023.56 1023.23 1023.01 1022.74 1022.38 1022.05 1021.77 1021.50 1021.22 1020.83 1020.55 1020.42
1013.33 1012.55 1012.50 1012.43 1012.82 1012.48 1012.27 1011.44 1011.33 1011.77 1012.91 1014.00 1015.50 1016.56 1017.97 1018.96 1019.72 1020.26 1020.95 1021.61 1022.16 1022.49 1022.55 1022.97 1023.15 1023.42 1023.83 1023.87 1024.05 1024.00 1024.13 1024.22 1024.29 1024.34 1024.28 1024.19 1024.04 1023.97 1023.80 1023.49 1023.23 1022.79 1022.33 1021.94 1021.71 1021.40 1021.03 1020.67 1020.31
1012.71 1012.14 1012.15 1012.04 1012.74 1012.82 1012.75 1011.83 1011.90 1011.33 1012.36 1013.84 1015.14 1016.51 1018.00 1019.04 1019.76 1020.43 1021.29 1021.79 1022.40 1022.94 1023.43 1023.61 1023.94 1024.26 1024.53 1024.55 1024.64 1024.78 1024.93 1024.87 1024.93 1024.95 1024.89 1024.86 1024.50 1024.30 1024.06 1023.79 1023.46 1023.16 1022.80 1022.39 1022.07 1021.65 1021.26 1020.83 1020.29
Wind_Speed
12 6 4 5 7 5 4 6 2 5 6 4 5 5 10 10 9 6 9 5 13 13 14 11 10 10 9 8 8 10 12 15 15 15 13 13 15 15 14 15 16 15 16 17 17 16 16 14 17
7 5 4 4 6 6 6 7 6 6 7 6 3 1 1 10 10 11 11 9 14 14 14 12 10 10 9 8 7 9 12 15 15 14 13 12 14 14 13 12 16 15 14 15 15 13 13 16 17
8 5 7 4 4 1 6 7 9 8 4 3 2 2 3 5 9 12 13 15 14 13 12 13 9 10 9 9 9 9 14 15 15 13 13 12 13 13 13 14 13 14 14 14 12 15 16 16 16
4 4 4 8 5 4 2 8 10 9 3 1 2 6 6 6 10 7 16 16 13 10 10 11 10 10 9 8 9 12 15 14 14 12 13 12 13 12 12 12 13 15 14 12 11 14 15 15 16
5 4 6 5 3 3 2 7 9 9 7 6 2 5 8 5 9 14 17 15 13 13 10 11 9 9 9 8 7 9 13 13 13 12 12 12 11 11 13 9 10 13 13 10 12 15 14 14 14
5 6 6 8 7 5 5 7 7 6 4 6 4 4 9 9 10 15 16 14 12 13 11 11 9 8 7 7 6 5 11 11 12 12 11 11 10 10 11 9 6 12 12 12 13 14 12 12 12
10 8 9 6 9 7 6 8 8 6 6 5 3 3 7 10 12 15 15 13 12 13 6 10 10 9 7 7 6 7 8 9 11 10 10 9 8 8 9 8 8 12 13 13 13 12 11 11 10
4 6 4 7 9 5 9 9 3 6 6 4 3 4 8 14 14 15 14 13 12 12 9 7 10 10 9 8 6 6 8 9 11 10 10 8 8 8 8 6 6 10 11 13 11 9 9 9 9
4 6 7 8 7 9 12 9 3 3 6 3 3 6 6 16 16 16 14 13 12 10 10 8 8 9 8 9 8 7 8 8 9 8 8 7 6 6 7 8 5 7 11 11 10 7 6 8 7
5 6 9 4 3 11 14 9 10 7 8 6 7 7 12 15 16 18 17 15 16 14 12 9 8 8 8 6 9 7 8 7 6 6 7 3 4 4 4 7 6 8 10 7 9 7 1 6 5
6 10 6 4 4 8 12 7 7 6 7 7 10 12 13 14 14 15 16 15 15 15 12 11 10 9 9 7 6 4 4 4 3 5 5 4 4 4 4 5 4 4 4 4 4 4 5 1 1
9 2 2 4 4 5 11 10 7 6 8 7 5 14 14 15 15 15 14 14 14 14 14 13 12 10 9 6 6 5 5 5 4 6 7 5 3 4 3 4 5 3 4 5 4 3 1 3 2
7 8 5 7 5 5 5 5 3 6 9 7 7 6 12 13 14 13 13 13 13 13 13 13 13 11 9 8 6 6 6 5 6 5 6 5 5 4 4 4 4 4 4 4 3 3 4 4 4
5 8 9 6 7 4 5 3 1 4 3 5 6 8 11 12 13 12 13 14 14 14 14 13 14 11 10 8 6 5 6 6 6 5 6 8 5 5 5 5 5 4 4 4 4 4 5 5 5
12 8 6 6 5 3 2 4 7 7 3 5 8 8 8 11 12 13 13 13 13 13 13 13 13 12 11 9 8 5 5 4 3 6 7 8 8 6 6 5 5 5 5 5 5 6 6 5 5
7 8 8 7 6 4 4 5 8 2 8 8 7 8 7 8 11 12 11 12 12 12 13 13 8 9 10 9 7 5 4 5 5 4 3 8 8 8 7 6 6 4 3 4 5 6 6 6 7
9 10 14 6 5 4 7 5 6 2 4 7 7 6 6 8 8 10 11 11 11 12 13 13 13 12 10 9 6 6 6 5 5 5 6 6 9 9 8 6 6 5 5 5 5 5 3 6 6
13 15 8 11 8 6 8 10 5 6 3 6 5 5 6 6 6 4 7 10 11 12 12 13 11 12 9 6 6 5 5 5 4 5 6 8 6 6 6 7 7 4 6 6 5 5 5 7 5
16 14 10 7 3 6 12 10 9 6 5 7 6 3 3 2 2 2 3 5 7 10 12 13 13 13 10 6 5 4 6 5 5 4 6 8 7 8 8 6 6 5 6 7 6 8 9 7 7
10 14 9 5 3 4 5 11 10 3 4 1 4 5 2 2 3 2 2 0 5 8 10 12 12 12 10 7 6 4 4 4 5 5 7 8 7 8 8 8 7 8 5 8 9 7 5 3 4
9 14 12 4 6 1 2 8 12 4 4 3 2 1 2 2 5 5 5 4 3 2 6 9 11 11 10 12 7 4 2 0 3 5 5 7 8 9 9 9 8 8 8 7 8 8 10 9 5
9 2 11 11 11 5 3 4 8 8 6 5 5 4 5 7 7 7 8 8 7 5 3 5 5 8 8 9 9 6 4 6 4 5 5 6 8 9 9 10 9 9 7 9 9 8 10 9 8
5 8 9 9 5 1 6 6 6 8 8 6 6 7 6 7 9 9 9 9 9 8 8 7 6 5 4 5 6 5 6 6 5 2 4 6 6 9 9 9 9 9 7 9 10 9 10 8 9
16 13 11 6 3 6 10 8 9 9 11 11 9 10 9 8 9 9 9 10 10 10 10 10 11 10 8 6 4 1 2 6 5 5 4 5 4 4 3 4 4 6 7 9 9 10 11 10 10
10 15 5 7 5 6 3 4 4 7 6 12 15 13 10 10 9 9 10 10 11 12 11 10 12 13 12 12 10 8 6 4 3 4 4 5 4 5 6 7 7 6 6 5 4 5 7 8 8
14 16 6 7 7 6 3 9 2 8 6 13 13 14 11 9 8 10 10 10 10 11 12 12 13 13 12 12 12 10 10 7 6 7 6 5 6 6 9 8 8 9 9 8 8 5 6 7 8
12 9 4 7 2 2 7 5 4 8 11 13 14 13 12 11 9 10 10 10 10 11 12 12 12 13 12 12 11 11 10 10 8 9 8 6 6 6 7 8 8 9 9 8 9 7 8 8 8
8 12 5 3 6 5 7 8 7 15 19 17 17 16 14 11 10 10 10 9 9 10 10 11 11 12 10 11 9 9 9 9 8 7 8 9 8 9 8 8 8 8 8 8 9 8 8 9 8
5 6 5 4 3 5 4 6 3 20 22 22 19 17 15 13 12 10 10 9 8 8 9 9 10 11 9 9 9 9 8 9 8 8 8 8 8 9 9 9 9 9 9 9 8 9 10 10 11
6 10 13 6 5 2 3 3 4 8 20 19 18 15 15 13 12 11 10 10 8 8 8 9 9 9 8 8 9 9 9 9 9 9 9 9 9 8 8 9 9 9 10 9 9 10 10 11 11
Wind_Direction
265 268 294 253 239 254 116 148 87 133 142 59 55 342 35 27 6 36 132 137 128 134 125 128 111 115 118 111 98 106 125 114 103 96 97 100 96 91 86 87 91 80 83 84 86 85 83 75 76
298 298 240 274 256 197 132 127 173 95 79 102 110 213 185 83 66 117 131 147 135 129 141 134 120 125 116 104 93 110 121 111 104 100 102 106 97 88 89 97 94 87 82 88 82 83 83 78 77
273 280 276 270 288 165 127 174 122 107 106 145 140 335 1 75 104 129 111 145 138 136 128 114 123 121 118 103 96 106 120 113 111 107 109 111 102 86 77 75 95 99 92 95 87 85 83 81 77
267 204 216 251 169 68 50 161 126 144 143 180 316 97 105 29 130 102 140 142 141 121 94 125 120 123 112 103 97 108 118 113 106 109 111 111 102 91 81 74 73 98 95 101 93 90 84 79 75
232 266 233 240 147 113 140 140 156 173 139 153 199 106 79 104 101 126 146 147 145 122 125 133 120 121 121 115 105 101 112 113 112 109 110 109 105 93 91 77 69 95 102 87 94 92 86 82 79
214 259 226 204 169 142 139 153 172 172 135 111 199 126 84 124 136 139 146 148 141 134 138 127 119 117 112 113 109 104 112 112 109 112 112 110 107 97 93 83 51 113 103 97 86 92 95 92 89
250 218 233 196 155 163 151 164 175 166 150 142 44 128 100 154 133 147 149 146 144 117 118 138 140 131 113 105 101 97 100 110 111 108 104 94 89 84 80 84 83 104 101 88 80 90 99 101 102
268 249 218 210 181 135 146 167 167 173 117 103 360 151 153 144 148 151 152 149 148 141 145 158 145 159 152 144 109 99 99 99 104 101 95 92 90 87 96 108 53 100 100 97 89 86 94 108 109
285 213 213 182 198 141 156 163 171 84 135 121 99 39 86 136 153 154 157 159 153 167 146 169 165 164 156 147 132 127 104 105 112 114 111 155 123 151 168 65 57 87 93 95 100 90 92 98 88
237 225 204 155 102 156 168 187 153 170 147 155 145 112 124 149 165 165 172 172 171 172 172 171 178 173 165 154 152 165 147 164 163 147 162 150 138 101 86 90 63 68 92 93 87 88 181 230 148
203 212 112 133 78 141 160 165 156 170 177 157 177 155 158 167 181 182 185 182 184 177 177 176 182 186 180 174 170 169 169 165 163 160 169 156 142 154 171 139 161 150 190 147 162 173 216 311 293
183 92 108 123 103 162 167 140 170 201 82 73 106 154 168 181 187 193 195 191 189 189 185 176 183 192 196 181 186 189 183 181 184 182 183 173 183 179 184 178 179 175 197 164 195 177 180 206 252
214 136 105 111 131 160 116 175 91 188 125 118 106 166 176 191 195 198 199 203 192 196 196 187 188 189 195 201 203 189 210 193 196 189 191 201 195 191 192 194 191 194 190 189 193 202 197 211 218
137 137 121 135 130 112 184 145 267 95 135 196 165 170 187 200 200 194 204 202 202 206 204 192 194 193 201 200 207 203 216 206 209 200 199 209 209 201 202 198 206 206 205 206 208 210 215 221 223
146 115 142 156 133 113 285 208 216 125 151 156 201 181 188 194 197 204 204 210 205 208 209 205 194 196 207 198 208 221 179 200 235 224 215 204 213 211 216 212 215 215 208 215 221 219 230 238 234
161 175 180 148 176 126 231 239 130 162 203 204 178 191 185 198 208 204 205 211 208 211 210 204 185 184 204 200 201 203 208 204 210 224 250 220 218 227 213 225 223 219 220 213 228 226 224 233 237
196 196 212 146 206 139 216 246 119 144 190 184 182 172 189 200 204 215 210 215 213 210 209 209 194 204 203 204 204 202 207 211 212 208 222 226 232 228 236 232 236 196 220 220 225 240 243 238 245
181 216 201 202 175 203 195 237 143 160 193 185 173 175 183 190 205 199 222 228 225 224 216 211 208 193 201 202 205 201 204 216 224 221 210 220 222 224 236 247 245 201 233 237 229 239 229 252 256
195 206 196 186 116 213 220 241 211 172 225 217 229 219 227 202 93 262 244 261 240 240 225 222 214 207 180 188 189 203 206 205 217 229 224 215 207 208 216 228 251 238 221 241 224 230 244 247 244
175 193 186 94 136 212 204 241 233 163 230 262 281 255 245 181 143 99 89 211 230 228 224 229 222 214 193 176 192 197 178 204 210 215 226 221 218 207 211 218 226 228 221 230 234 217 235 248 208
189 194 177 172 147 169 243 241 184 166 153 158 136 221 194 136 127 99 76 66 71 200 216 218 220 215 214 183 176 180 113 110 195 216 226 226 221 215 211 216 223 229 228 235 236 230 218 237 225
184 163 145 141 174 203 213 243 178 165 186 169 140 152 135 130 108 93 80 66 61 64 113 208 197 210 215 212 202 186 217 239 236 241 213 221 220 226 221 224 224 228 224 231 236 234 230 232 243
134 151 137 153 185 225 190 251 132 166 196 178 145 121 125 105 108 96 84 77 68 60 69 90 112 124 153 204 234 206 217 227 209 258 250 210 215 221 226 224 230 233 231 235 237 236 230 224 235
138 118 98 113 175 238 213 232 203 174 202 162 144 134 131 118 105 98 88 86 80 72 75 80 86 82 90 106 130 172 353 21 21 2 358 353 342 339 340 336 284 257 248 244 243 243 243 233 232
171 157 148 195 195 233 52 218 250 124 165 174 155 144 142 133 117 104 94 82 76 77 76 76 81 80 79 78 72 72 89 83 69 8 1 341 337 336 339 335 315 304 294 290 283 274 258 249 245
193 187 170 189 195 183 87 230 210 121 157 143 142 141 136 128 121 106 97 94 86 79 77 76 74 74 71 73 69 62 52 57 52 43 25 22 8 0 350 338 329 322 318 309 297 292 287 280 263
176 202 69 105 21 162 183 223 179 164 160 153 152 155 149 140 132 118 105 94 89 82 76 77 76 70 64 65 62 59 53 52 47 42 35 22 16 2 346 344 336 329 322 317 310 294 284 286 282
220 144 152 216 162 215 185 240 240 185 178 172 169 169 157 146 140 130 116 106 99 92 87 82 78 73 65 66 62 60 54 51 44 41 32 19 6 2 355 352 345 337 332 327 319 306 300 296 288
163 186 213 230 238 213 184 235 343 189 184 178 175 170 162 161 151 138 128 117 104 95 88 82 75 72 64 62 58 57 50 43 41 34 25 14 359 357 352 347 339 335 331 331 323 314 307 302 298
268 217 196 201 191 299 41 257 333 209 184 178 172 163 166 163 153 145 140 131 118 104 91 82 74 70 59 56 59 52 43 35 31 23 15 5 360 351 344 342 337 332 328 326 321 315 313 307 301